ONEWEB-0695, 61602

Orbit data source: Space-Track

ONEWEB-0695, 61602 is a payload satellite owned by Eut. One Web (UK) in LEO that was launched on Sun, 20 Oct 2024 UTC via an FALCON 9 launch vehicle from the Air Force Western Test Range (AFWTR). Payload-class satellites include a variety of spacecraft equipped with specific instruments for various scientific and technological missions. These include communications satellites like Starlink; space stations such as the ISS; scientific satellites like the Hubble; Earth observation satellites from companies like Planet Labs, Umbra, and HawkEye 360; GPS; miniature CubeSats for education and research; and military/defense satellites.

Loading next visibility...
Identifier
61602, 2024-188J
Orbit
LEO
Last TLE update
20 hours ago
Origin
Manufacturer
One Web
Mission
Operational Commercial Communications
Bus & Motor
ARROW, Unknown motor
Mass
148 kg wet, ~140 kg dry
Launch date (UTC)
2024-10-20 (8 months ago)
Launch vehicle
FALCON 9
Launch site
Air Force Western Test Range (AFWTR)
Object type
Payload
Rocket body
Debris
Shape & HBR
Trap Box + 2 Pan, 5 m
Radar Cross Section
2.032 m², Medium (>0.1 m² and < 1m²)

Expand to show TLE details & history

TLE from 20 hours ago
0 ONEWEB-0695
1 61602U 24188J   25162.84793122 -.00000371  00000-0 -10822-2 0  9998
2 61602  87.8843  94.9093 0002612  75.9515 284.1903 13.11416000 35925
Epoch: 2025-06-11T20:21Z
TLE epoch observation values (Epoch: 2025-06-11T20:21:01.257Z)
Latitude
-0.00004°
Longitude
-110.77049°
Altitude
1,220.089 km
Speed
7.245 km/s
True Right ascension
06h 19m 38s
True Declination
0° 00' 00"
Sunlit
Object was in daylight at epoch
Visualization orbit readout
Latitude
-72.85381°
Longitude
75.90915°
Altitude
1,246.584 km
Speed
7.23 km/s
Apparent Right ascension
15h 39m 31s
Apparent Declination
-61° 28' 20"
Sunlit
Object is in full shadow
Visualization observer readout
Local Sidereal Time
02:21:15
Azimuth
202.552° SW
Elevation
-65.355°
Doppler factor
1
Orbital elements
Apogee altitude
1,216.788 km
Perigee altitude
1,212.821 km
Semi-major axis
7,592.942 km
Eccentricity
0.00026
Inclination
87.8843°
RAAN
94.9093°
Arg. of periapsis
75.9515°
True anomaly
Unknown
Mean anomaly
284.1903°
Eccentric anomaly
Unknown
Mean motion
3.28041 °/min
Orbital period
109.74 mins
BSTAR
-0.0010822
Loading maneuver chart data...
Loading SW <> Apogee altitude chart data...
Loading historical data...
Loading historical data...
Loading historical data...
Loading historical data...
Loading historical data...
Loading historical data...
Loading historical data...

ONEWEB-0695 Visibility forecast

Observer location: undefined°, undefined°

Span
Click to sort rows by Start time (UTC) header in descending order
Start Az.
Max El. time (UTC)
Max El. Az.
Max El.
End time (UTC)
End Az.
9 mins2025-06-12 18:27:49.172Z116.423° SE2025-06-12 18:31:49.172Z80.161° E20.26°2025-06-12 18:36:49.172Z32.998° NE
12 mins2025-06-12 20:15:49.172Z193.642° SSW2025-06-12 20:21:49.172Z288.636° WNW42.291°2025-06-12 20:27:49.172Z353.512° N
7 mins2025-06-13 05:57:49.172Z48.7° ENE2025-06-13 06:00:49.172Z76.732° E16.281°2025-06-13 06:04:49.172Z110.648° ESE
12 mins2025-06-13 07:45:49.172Z356.593° N2025-06-13 07:50:49.172Z313.922° NW44.47°2025-06-13 07:57:49.172Z185.902° SSW
4 mins2025-06-13 09:38:49.172Z298.917° NW2025-06-13 09:39:49.172Z290.245° WNW12.812°2025-06-13 09:42:49.172Z265.479° W
|